Top countries

USA - 11230
Canada - 2057
United Kingdom - 1972
Australia - 1242
Poland - 1143
Brazil - 1135
Germany - 1111
Iran - 1085
Russia - 991
France - 957
Greece - 957
Mexico - 935
Some observations

Total members: 54011
Guys: 44762
Girls: 9209

Positions

Admin
Staff
Moderator
Elite
Contributor
Search







Pages: 1 ... 790 791 792 [793] 794 795 796 ... 1081
Username Sex Age Location Registered Last seen online Posts Points
39601 Deadcenter Ukraine 08.06.2013 500d ago 0 0
39602 Ramiro Zambia 08.06.2013 never 0 0
39603 veal Poland 08.06.2013 504d ago 0 0
39604 Le3o 17 Paraguay 08.06.2013 503d ago 0 0
39605 Nocturne Iran 08.06.2013 never 0 0
39606 Nocturne-km Iran 08.06.2013 100d ago 0 0
39607 DemmelitionMan 08.06.2013 459d ago 0 0
39608 Rosalind Kiribati 09.06.2013 never 0 0
39609 bagby Latvia 09.06.2013 235d ago 0 0
39610 AliMohammed 09.06.2013 164d ago 0 0
39611 bigdr82 Australia 08.06.2013 never 0 0
39612 UncleProg 23 Poland 08.06.2013 51h ago 0 0
39613 Pavel Czech Republic 08.06.2013 497d ago 0 0
39614 romeosingal USA 08.06.2013 504d ago 0 0
39615 Maybell Oman 08.06.2013 never 0 0
39616 LordInfinity Argentina 08.06.2013 never 0 0
39617 deepgrowl88 37 Norway 09.06.2013 502d ago 0 0
39618 tempoklad United Kingdom 08.06.2013 9h ago 0 0
39619 siki Serbia 09.06.2013 489d ago 0 0
39620 quill5soccer Indonesia 08.06.2013 never 0 0
39621 Leigh Latvia 09.06.2013 never 0 0
39622 hieidemon Argentina 08.06.2013 386d ago 0 0
39623 Kenton Brunei 08.06.2013 never 0 0
39624 DavideIsola 09.06.2013 503d ago 0 0
39625 A6'sGurrrl 15 USA 09.06.2013 503d ago 0 0
39626 kyyvits Estonia 09.06.2013 503d ago 0 0
39627 gchirinoegui 24 Venezuela 10.06.2013 28h ago 0 0
39628 engenas Lithuania 09.06.2013 179d ago 0 0
39629 Janrey United Kingdom 09.06.2013 503d ago 0 0
39630 RikardIncarnit Sweden 09.06.2013 502d ago 0 0
39631 ego Italy 09.06.2013 never 0 0
39632 Gchirino Venezuela 10.06.2013 never 0 0
39633 Jenna Korea, South 10.06.2013 never 0 0
39634 Emba Sweden 09.06.2013 never 0 0
39635 grooweN Sweden 09.06.2013 501d ago 0 0
39636 TiiaLutsoja 09.06.2013 325d ago 0 0
39637 QueenMiSeRy Italy 09.06.2013 457d ago 0 0
39638 onslaught United Kingdom 10.06.2013 494d ago 0 8
39639 BalletRocker 21 Iceland 09.06.2013 238d ago 0 0
39640 Uta Greece 09.06.2013 never 0 0
39641 temptation 22 Poland 10.06.2013 19d ago 0 0
39642 Mkuusi Finland 09.06.2013 503d ago 0 0
39643 carlos sebastian Puerto Rico 09.06.2013 never 0 0
39644 JamieLaverickPoetry   09.06.2013 503d ago 0 0
39645 max101 Ireland 09.06.2013 497d ago 0 0
39646 Joao.Martins 25 Portugal 09.06.2013 503d ago 0 0
39647 juri1012 Germany 09.06.2013 39d ago 0 0
39648 Shanna Somalia 09.06.2013 never 0 0
39649 Dafa01 Sweden 09.06.2013 236d ago 0 0
39650 RakunG Poland 09.06.2013 91h ago 0 0
Pages: 1 ... 790 791 792 [793] 794 795 796 ... 1081